| time (UTC) | temp F | wind direction | speed knots | gust knots | rain 1hr in | rain 24hr in | rain mn in | humidity % | barometer mb |
| 20260506124545 | 44 | 115 | 0.0 | 0.0 | 0.00 | 0.00 | 0.00 | 68 | 1010.5 |
| 20260506123143 | 42 | 214 | 0.0 | 0.0 | 0.00 | 0.00 | 0.00 | 69 | 1010.3 |
| 20260506121640 | 43 | 150 | 0.0 | 0.0 | 0.00 | 0.00 | 0.00 | 67 | 1010.0 |
| 20260506120042 | 43 | 321 | 0.0 | 0.0 | 0.00 | 0.00 | 0.00 | 65 | 1009.8 |
| 20260506114534 | 44 | 309 | 0.0 | 0.0 | 0.00 | 0.00 | 0.00 | 63 | 1009.6 |
| 20260506113034 | 44 | 241 | 0.0 | 0.0 | 0.00 | 0.00 | 0.00 | 62 | 1009.4 |
| 20260506111530 | 44 | 290 | 0.0 | 0.0 | 0.00 | 0.00 | 0.00 | 62 | 1009.4 |
| 20260506110026 | 46 | 252 | 0.0 | 0.0 | 0.00 | 0.00 | 0.00 | 60 | 1009.2 |
| 20260506104524 | 47 | 46 | 0.0 | 0.0 | 0.00 | 0.00 | 0.00 | 60 | 1009.2 |
| 20260506103022 | 48 | 32 | 0.0 | 0.0 | 0.00 | 0.00 | 0.00 | 59 | 1008.7 |
| 20260506101520 | 47 | 43 | 0.0 | 0.0 | 0.00 | 0.00 | 0.00 | 60 | 1008.7 |
| 20260506100018 | 47 | 41 | 0.0 | 0.0 | 0.00 | 0.00 | 0.00 | 58 | 1008.5 |
| 20260506094519 | 50 | 310 | 0.0 | 0.0 | 0.00 | 0.00 | 0.00 | 55 | 1008.3 |
| 20260506093017 | 49 | 273 | 0.0 | 0.0 | 0.00 | 0.00 | 0.00 | 56 | 1008.2 |
| 20260506091516 | 49 | 148 | 0.0 | 0.0 | 0.00 | 0.00 | 0.00 | 57 | 1008.1 |
| 20260506090018 | 49 | 295 | 0.0 | 0.0 | 0.00 | 0.00 | 0.00 | 58 | 1007.9 |
| 20260506084509 | 49 | 295 | 0.0 | 0.0 | 0.00 | 0.00 | 0.00 | 57 | 1007.8 |
| 20260506083006 | 51 | 295 | 0.0 | 0.0 | 0.00 | 0.00 | 0.00 | 53 | 1007.6 |
| 20260506081504 | 51 | 295 | 0.0 | 0.0 | 0.00 | 0.00 | 0.00 | 55 | 1007.6 |
| 20260506073100 | 57 | 295 | 0.0 | 0.0 | 0.00 | 0.00 | 0.00 | 47 | 1007.3 |
| 20260506071555 | 55 | 295 | 0.0 | 0.0 | 0.00 | 0.00 | 0.00 | 49 | 1007.1 |
| 20260506061554 | 60 | 295 | 0.0 | 0.0 | 0.00 | 0.00 | 0.00 | 43 | 1006.3 |
| 20260506044544 | 63 | 237 | 0.0 | 0.0 | 0.00 | 0.00 | 0.00 | 36 | 1005.5 |
| 20260506043039 | 64 | 215 | 0.0 | 0.0 | 0.00 | 0.00 | 0.00 | 35 | 1005.1 |
| 20260506041534 | 65 | 173 | 0.0 | 0.0 | 0.00 | 0.00 | 0.00 | 34 | 1004.8 |
| 20260506040031 | 66 | 214 | 0.0 | 0.9 | 0.00 | 0.00 | 0.00 | 33 | 1004.6 |
| 20260506034532 | 66 | 226 | 0.0 | 0.0 | 0.00 | 0.00 | 0.00 | 33 | 1004.2 |
| 20260506033030 | 67 | 241 | 0.0 | 0.9 | 0.00 | 0.00 | 0.00 | 32 | 1003.9 |
| 20260506031543 | 68 | 266 | 0.0 | 5.2 | 0.00 | 0.00 | 0.00 | 32 | 1003.8 |
| 20260506030030 | 68 | 214 | 0.0 | 8.7 | 0.00 | 0.00 | 0.00 | 32 | 1003.8 |
| 20260506024540 | 67 | 283 | 0.9 | 23.5 | 0.00 | 0.00 | 0.00 | 35 | 1003.9 |
| 20260506023027 | 70 | 245 | 1.7 | 7.8 | 0.00 | 0.00 | 0.00 | 28 | 1003.0 |
| 20260506021526 | 70 | 209 | 0.0 | 0.0 | 0.00 | 0.00 | 0.00 | 29 | 1002.6 |
| 20260506020025 | 71 | 190 | 0.0 | 6.1 | 0.00 | 0.00 | 0.00 | 28 | 1002.5 |
| 20260506014527 | 71 | 255 | 0.9 | 9.6 | 0.00 | 0.00 | 0.00 | 27 | 1002.3 |
| 20260506013024 | 72 | 203 | 0.9 | 13.0 | 0.00 | 0.00 | 0.00 | 27 | 1002.3 |
| 20260506011522 | 73 | 228 | 4.3 | 15.6 | 0.00 | 0.00 | 0.00 | 27 | 1002.1 |
| 20260506010023 | 73 | 206 | 0.9 | 20.9 | 0.00 | 0.00 | 0.00 | 26 | 1002.1 |
| 20260506004521 | 76 | 200 | 4.3 | 22.6 | 0.00 | 0.00 | 0.00 | 24 | 1002.0 |
| 20260506003120 | 77 | 219 | 8.7 | 22.6 | 0.00 | 0.00 | 0.00 | 25 | 1001.9 |
| 20260506001518 | 77 | 214 | 9.6 | 16.5 | 0.00 | 0.00 | 0.00 | 24 | 1001.9 |
| 20260506000015 | 77 | 195 | 2.6 | 14.8 | 0.00 | 0.00 | 0.00 | 25 | 1002.0 |
| 20260505234517 | 75 | 231 | 1.7 | 16.5 | 0.00 | 0.00 | 0.00 | 27 | 1002.0 |
| 20260505233012 | 74 | 231 | 7.0 | 15.6 | 0.00 | 0.00 | 0.00 | 30 | 1001.8 |
| 20260505231510 | 74 | 304 | 0.0 | 3.5 | 0.00 | 0.00 | 0.00 | 34 | 1002.2 |
| 20260505230008 | 72 | 217 | 0.0 | 0.9 | 0.00 | 0.00 | 0.00 | 37 | 1002.3 |
| 20260505224507 | 71 | 265 | 0.9 | 8.7 | 0.00 | 0.00 | 0.00 | 36 | 1002.4 |
| 20260505223004 | 70 | 302 | 1.7 | 14.8 | 0.00 | 0.00 | 0.00 | 39 | 1002.8 |
| 20260505221503 | 73 | 311 | 0.0 | 6.1 | 0.00 | 0.00 | 0.00 | 34 | 1002.9 |
| 20260505220002 | 74 | 224 | 5.2 | 20.9 | 0.00 | 0.00 | 0.00 | 32 | 1002.9 |
| 20260505214622 | 74 | 214 | 1.7 | 20.0 | 0.00 | 0.00 | 0.00 | 32 | 1002.8 |
| 20260505213103 | 74 | 205 | 4.3 | 19.1 | 0.00 | 0.00 | 0.00 | 33 | 1003.3 |
| 20260505211603 | 73 | 226 | 7.8 | 22.6 | 0.00 | 0.00 | 0.00 | 34 | 1003.7 |
| 20260505210053 | 73 | 200 | 0.0 | 13.9 | 0.00 | 0.00 | 0.00 | 35 | 1004.0 |
| 20260505204551 | 72 | 205 | 9.6 | 19.1 | 0.00 | 0.00 | 0.00 | 35 | 1004.2 |
| 20260505203151 | 73 | 221 | 6.1 | 18.2 | 0.00 | 0.00 | 0.00 | 35 | 1004.1 |
| 20260505201554 | 72 | 186 | 3.5 | 16.5 | 0.00 | 0.00 | 0.00 | 37 | 1004.3 |
| 20260505200057 | 72 | 237 | 6.1 | 20.9 | 0.00 | 0.00 | 0.00 | 39 | 1004.5 |
| 20260505194546 | 71 | 198 | 6.1 | 17.4 | 0.00 | 0.00 | 0.00 | 40 | 1004.7 |
| 20260505193045 | 71 | 201 | 11.3 | 23.5 | 0.00 | 0.00 | 0.00 | 41 | 1004.7 |
| 20260505191547 | 72 | 217 | 1.7 | 11.3 | 0.00 | 0.00 | 0.00 | 40 | 1004.9 |
| 20260505190043 | 71 | 201 | 7.8 | 21.7 | 0.00 | 0.00 | 0.00 | 41 | 1005.0 |
| 20260505184542 | 70 | 188 | 11.3 | 20.9 | 0.00 | 0.00 | 0.00 | 42 | 1005.3 |
| 20260505183052 | 70 | 226 | 4.3 | 17.4 | 0.00 | 0.00 | 0.00 | 42 | 1005.5 |
| 20260505181539 | 70 | 169 | 8.7 | 19.1 | 0.00 | 0.00 | 0.00 | 43 | 1005.4 |
| 20260505180042 | 68 | 271 | 3.5 | 22.6 | 0.00 | 0.00 | 0.00 | 44 | 1005.6 |
| 20260505174545 | 67 | 229 | 7.8 | 21.7 | 0.00 | 0.00 | 0.00 | 46 | 1005.4 |
| 20260505173037 | 68 | 198 | 9.6 | 20.0 | 0.00 | 0.00 | 0.00 | 46 | 1005.3 |
| 20260505171536 | 69 | 255 | 3.5 | 18.2 | 0.00 | 0.00 | 0.00 | 45 | 1005.2 |
| 20260505170035 | 68 | 214 | 10.4 | 20.9 | 0.00 | 0.00 | 0.00 | 45 | 1004.7 |
| 20260505164536 | 68 | 203 | 12.2 | 21.7 | 0.00 | 0.00 | 0.00 | 45 | 1004.8 |
| 20260505163034 | 68 | 215 | 10.4 | 21.7 | 0.00 | 0.00 | 0.00 | 45 | 1005.0 |
| 20260505161532 | 67 | 238 | 1.7 | 18.2 | 0.00 | 0.00 | 0.00 | 45 | 1005.1 |
| 20260505153034 | 69 | 194 | 4.3 | 14.8 | 0.00 | 0.00 | 0.00 | 41 | 1005.1 |
| 20260505151529 | 68 | 175 | 0.0 | 4.3 | 0.00 | 0.00 | 0.00 | 42 | 1005.1 |